Weather History for Triuchirapalli, India

Change the Weather History Date:

Thursday, February 28, 2013

  Actual Average Record
Temperature  
Mean Temperature 84 °F -  
Max Temperature 97 °F 92 °F 97 °F (2013)
Min Temperature 72 °F 77 °F 35 °F (2005)
Cooling Degree Days 20    
Growing Degree Days 34 (Base 50)    
Moisture  
Dew Point 65 °F    
Average Humidity 57    
Maximum Humidity 89    
Minimum Humidity 22    
Precipitation  
Precipitation 0.00 in - - ()
Sea Level Pressure  
Sea Level Pressure 29.88 in    
Wind  
Wind Speed 6 mph ()    
Max Wind Speed 17 mph    
Max Gust Speed -    
Visibility 2.6 miles    
Events      
Averages and records for this station are not official NWS values.
T = Trace of Precipitation, MM = Missing Value Source: Averaged Metar Reports

Daily Weather History Graph

Daily Weather History Graph

Search for Another Location

Airport:

Trip Planner

Search our weather history database for the weather conditions in past years. The results will help you decide how hot, cold, wet, or windy it might be!

Date:

Astronomy

Feb. 28, 2013 Rise Set
Actual Time 6:30 AM IST 6:25 PM IST
Civil Twilight 6:09 AM IST 6:46 PM IST
Nautical Twilight 5:44 AM IST 7:10 PM IST
Astronomical Twilight 5:20 AM IST 7:35 PM IST
Moon 8:38 PM IST (2/28) 8:00 AM IST (2/28)
Length of Visible Light 12h 37m
Length of Day
11h 54m
Waning Gibbous, 93% of the Moon is Illuminated
Feb 28
Waning Gibbous
Mar 5
Last Quarter
Mar 12
New
Mar 19
First Quarter
Mar 27
Full

Hourly Weather History & Observations

Time (IST) Temp. Heat Index Dew Point Humidity Pressure Visibility Wind Dir Wind Speed Gust Speed Precip Events Conditions
12:10 AM 75.2 °F - 64.4 °F 69% 29.92 in 2.5 mi NE 3.5 mph - N/A   Haze
12:40 AM 75.2 °F - 64.4 °F 69% 29.92 in 2.5 mi ENE 2.3 mph - N/A   Haze
1:10 AM 75.2 °F - 64.4 °F 69% 29.92 in 2.2 mi East 3.5 mph - N/A   Haze
1:40 AM 75.2 °F - 64.4 °F 69% 29.89 in 2.2 mi NE 4.6 mph - N/A   Haze
2:30 AM 74 °F - 69 °F 78% 29.89 in 1 mi NE 5.8 mph - -   Haze
2:40 AM 73.4 °F - 66.2 °F 78% 29.89 in 1.9 mi NE 5.8 mph - N/A   Haze
3:10 AM 73.4 °F - 66.2 °F 78% 29.89 in 1.9 mi NNE 3.5 mph - N/A   Haze
3:40 AM 73.4 °F - 68.0 °F 83% 29.89 in 1.9 mi North 2.3 mph - N/A   Haze
4:10 AM 73.4 °F - 68.0 °F 83% 29.86 in 1.6 mi NNE 3.5 mph - N/A   Haze
4:40 AM 71.6 °F - 68.0 °F 88% 29.86 in 1.6 mi NNE 3.5 mph - N/A   Haze
5:10 AM 71.6 °F - 68.0 °F 88% 29.86 in 1.6 mi NNE 4.6 mph - N/A   Haze
5:40 AM 73.4 °F - 69.8 °F 88% 29.89 in 1.2 mi NNE 5.8 mph - N/A   Scattered Clouds
6:10 AM 73.4 °F - 69.8 °F 88% 29.89 in 1.2 mi NNE 6.9 mph - N/A   Scattered Clouds
7:10 AM 75.2 °F - 71.6 °F 89% 29.89 in 0.9 mi North 5.8 mph - N/A   Scattered Clouds
7:40 AM 77.0 °F - 69.8 °F 78% 29.92 in 0.9 mi North 9.2 mph - N/A   Scattered Clouds
8:10 AM 78.8 °F - 69.8 °F 74% 29.92 in 1.1 mi NNE 11.5 mph - N/A   Scattered Clouds
8:30 AM 78 °F - 71 °F 74% 29.93 in 1 mi NNE 5.8 mph - -   Haze
8:40 AM 78.8 °F - 69.8 °F 74% 29.92 in 1.2 mi NNE 10.4 mph - N/A   Scattered Clouds
9:10 AM 78.8 °F - 71.6 °F 78% 29.95 in 1.2 mi NNE 2.3 mph - N/A   Scattered Clouds
9:40 AM 80.6 °F 83.9 °F 69.8 °F 70% 29.95 in 1.6 mi North 4.6 mph - N/A   Scattered Clouds
10:10 AM 82.4 °F 85.4 °F 68.0 °F 62% 29.95 in 1.9 mi ENE 5.8 mph - N/A   Haze
10:40 AM 84.2 °F 87.3 °F 68.0 °F 58% 29.95 in 1.9 mi NNW 3.5 mph - N/A   Haze
11:10 AM 86.0 °F 89.4 °F 68.0 °F 55% 29.92 in 3.1 mi NNW 3.5 mph - N/A   Haze
11:30 AM 90 °F - 66 °F 36% 29.91 in 2 mi NNE 4.6 mph - -   Haze
11:40 AM 89.6 °F 91.1 °F 64.4 °F 43% 29.92 in 3.1 mi NE 6.9 mph - N/A   Haze
12:10 PM 89.6 °F 92.2 °F 66.2 °F 46% 29.89 in 3.1 mi East 11.5 mph - N/A   Haze
12:40 PM 89.6 °F 92.2 °F 66.2 °F 46% 29.89 in 3.7 mi ENE 11.5 mph - N/A   Scattered Clouds
1:10 PM 91.4 °F 94.0 °F 66.2 °F 43% 29.86 in 3.7 mi ENE 16.1 mph - N/A   Partly Cloudy
1:40 PM 91.4 °F 94.0 °F 66.2 °F 43% 29.86 in 5.0 mi NE 10.4 mph - N/A   Unknown
2:10 PM 93.2 °F 94.1 °F 62.6 °F 36% 29.83 in 3.7 mi East 11.5 mph - N/A   Partly Cloudy
2:30 PM 96 °F - 61 °F 22% 29.82 in 2 mi East 11.5 mph - -   Haze
2:40 PM 95.0 °F 96.0 °F 62.6 °F 34% 29.83 in 3.7 mi East 12.7 mph - N/A   Partly Cloudy
3:10 PM 96.8 °F 98.0 °F 62.6 °F 32% 29.80 in 3.7 mi East 11.5 mph - N/A   Partly Cloudy
3:40 PM 96.8 °F 98.0 °F 62.6 °F 32% 29.80 in 3.7 mi ENE 12.7 mph - N/A   Unknown
4:10 PM 95.0 °F 96.0 °F 62.6 °F 34% 29.80 in 5.0 mi East 13.8 mph - N/A   Unknown
4:40 PM 95.0 °F 96.0 °F 62.6 °F 34% 29.80 in 5.0 mi East 13.8 mph - N/A   Unknown
5:10 PM 93.2 °F 94.1 °F 62.6 °F 36% 29.80 in 5.0 mi East 17.3 mph - N/A   Unknown
5:30 PM 93 °F - 58 °F 22% 29.79 in 2 mi East 16.1 mph - -   Haze
5:40 PM 93.2 °F 93.3 °F 60.8 °F 34% 29.80 in 5.0 mi East 16.1 mph - N/A   Unknown
6:40 PM 87.8 °F 87.6 °F 60.8 °F 40% 29.83 in 3.1 mi East 12.7 mph - N/A   Haze
7:10 PM 86.0 °F 86.1 °F 60.8 °F 43% 29.83 in 3.1 mi East 12.7 mph - N/A   Haze
7:40 PM 84.2 °F 84.4 °F 60.8 °F 45% 29.86 in 3.1 mi East 9.2 mph - N/A   Haze
8:10 PM 82.4 °F 83.9 °F 64.4 °F 54% 29.86 in 3.1 mi East 6.9 mph - N/A   Haze
8:30 PM 83 °F - 58 °F 32% 29.84 in 2 mi East 6.9 mph - -   Haze
8:40 PM 82.4 °F 83.9 °F 64.4 °F 54% 29.86 in 3.1 mi East 8.1 mph - N/A   Haze
9:10 PM 80.6 °F 81.8 °F 62.6 °F 54% 29.89 in 3.7 mi East 8.1 mph - N/A   Haze
9:40 PM 80.6 °F 81.8 °F 62.6 °F 54% 29.89 in - North - - N/A   Haze
10:10 PM 78.8 °F - 62.6 °F 57% 29.89 in 3.1 mi East 2.3 mph - N/A   Haze
10:40 PM 78.8 °F - 62.6 °F 57% 29.89 in 3.7 mi NE 4.6 mph - N/A   Haze
11:10 PM 78.8 °F - 62.6 °F 57% 29.89 in 3.7 mi NE 4.6 mph - N/A   Haze
11:30 PM 77 °F - 64 °F 55% 29.91 in 2 mi NE 2.3 mph - -   Haze
11:40 PM 77.0 °F - 64.4 °F 65% 29.92 in 2.5 mi NNE 2.3 mph - N/A   Haze